User: anonymous   Login
Location: B�retswil
(47.3376°N, 8.8534°E)
Time: 14:55:57
(UTC+00:00)
Language:

CZ-2C R/B - Orbit

View from above orbital plane
View from above orbital plane
View from above satellite
View from above satellite

Ground track
Ground track

The orbit data is extracted from the following two-line orbital elements,

1 31114U 07010B   21129.13549435 -.00000000  00000-0  18296-4 0  9998
2 31114  98.2350 325.6100 0060492  38.4368 322.1095 14.19359138729227
Epoch (UTC): 09 May 2021 03:15:06
Eccentricity: 0.0060492
inclination: 98.2350°
perigee height: 784 km
apogee height: 871 km
right ascension of ascending node: 325.6100°
argument of perigee: 38.4368°
revolutions per day: 14.19359138
mean anomaly at epoch: 322.1095°
orbit number at epoch: 72922

The dashed part of the orbit path shows where the satellite is in the earth's shadow,  

DLR